Wind_Speed
2 2 2 3 3 3 4 4 4 4 4 4 4 4 4 4 4 4 4 4 4 5 5 5 5 5 6 6 7 8 9 10 10 11 11 11 11 11 10 11 13 13 12 13 13 12 11 9 6 7 14 20 20 18 19 21 22 24 24 25 25 25 25
2 1 2 3 3 4 4 3 3 3 3 4 4 5 5 5 5 5 5 4 4 3 3 3 3 3 3 4 5 6 6 7 9 10 10 11 12 12 12 13 14 14 14 14 14 14 13 12 10 7 9 15 19 20 21 22 22 22 23 23 24 24 24
3 2 1 2 2 2 2 2 1 1 1 1 2 3 4 5 5 6 6 5 5 4 4 3 3 3 3 2 3 3 4 4 5 7 7 8 10 11 12 14 15 15 15 15 16 15 14 13 14 13 12 13 15 17 19 21 24 25 23 23 24 24 24
5 4 3 2 2 2 2 1 1 2 2 2 1 1 1 2 4 4 5 5 6 6 5 5 4 4 4 3 3 3 3 3 3 4 5 5 6 7 8 9 11 11 12 14 15 14 14 14 15 16 16 16 16 17 16 16 19 23 24 24 24 23 24
6 6 5 3 3 3 3 2 2 3 3 3 3 2 2 1 1 2 3 4 4 5 5 5 5 5 5 5 4 4 4 4 4 4 5 5 5 5 6 6 7 7 8 9 10 10 11 12 13 15 17 18 19 20 19 17 16 17 19 19 19 19 21
8 7 6 5 4 4 4 3 3 3 3 4 5 4 4 3 2 1 1 2 2 3 3 4 4 5 5 5 5 5 5 5 6 6 6 7 7 6 7 7 6 7 7 7 8 8 8 8 9 10 12 14 16 17 19 19 18 18 18 18 20 20 19
10 9 8 6 5 5 4 3 3 2 2 3 4 5 5 5 4 3 2 1 1 0 1 2 2 3 4 4 4 4 5 5 6 7 7 7 8 8 9 9 9 9 9 9 9 9 9 9 9 9 9 10 11 12 13 15 16 18 19 20 22 23 21
12 11 10 8 7 6 6 5 5 4 2 2 2 3 4 4 4 5 4 4 3 3 2 2 1 1 1 2 3 3 3 4 5 5 6 6 7 8 8 9 9 9 10 10 11 11 11 11 11 11 11 12 11 11 11 12 12 14 15 17 19 21 22
13 12 12 11 9 8 8 7 7 7 6 5 4 3 2 2 3 4 5 5 5 5 5 5 4 4 3 3 3 3 3 3 3 3 4 5 5 6 6 7 8 8 8 9 9 10 11 11 11 12 12 13 13 13 13 13 14 14 14 16 16 17 20
14 13 13 13 12 11 11 10 9 9 9 9 8 7 6 5 4 4 5 6 6 6 7 6 6 6 6 5 5 5 5 5 5 4 4 4 4 5 5 5 6 7 7 7 8 8 8 9 9 9 10 11 11 11 12 12 13 14 15 16 15 15 19
16 15 14 14 13 13 13 13 12 12 12 12 12 10 10 10 8 7 7 7 7 8 8 8 8 8 7 7 7 7 7 7 7 7 7 6 7 7 7 7 7 7 7 8 8 8 8 8 9 9 9 9 10 10 11 11 12 12 14 15 14 16 20
18 17 16 16 15 14 15 15 15 15 15 15 15 13 13 13 12 11 11 10 9 9 9 9 9 9 8 8 7 7 8 8 8 9 9 9 10 10 10 10 10 10 10 10 10 10 10 10 10 11 11 11 11 12 12 12 12 12 13 15 15 16 18
20 20 19 19 17 16 16 17 17 18 18 18 18 17 15 15 15 14 14 13 12 11 11 10 10 10 10 9 8 8 8 9 9 9 9 10 11 11 12 12 12 12 13 13 13 12 12 12 13 13 13 14 14 14 15 15 15 14 15 16 16 16 18
23 23 22 21 21 19 19 18 18 18 19 19 20 20 19 18 17 16 16 16 15 14 12 11 11 11 11 10 9 8 8 9 10 10 10 10 10 12 13 13 13 13 14 14 15 15 15 14 15 15 16 16 17 17 18 18 18 18 17 18 18 18 18
26 26 26 25 24 23 22 22 20 20 20 20 20 21 21 21 20 19 18 17 17 17 15 13 12 12 13 12 10 10 11 11 12 13 13 13 12 12 13 14 15 15 15 16 16 17 18 17 17 18 18 18 19 20 20 21 21 21 20 20 21 20 20
30 28 28 28 27 26 26 26 23 22 22 22 22 22 22 23 22 20 18 18 19 18 17 16 15 15 16 15 13 13 13 14 14 15 15 16 15 14 14 15 15 16 16 16 17 18 19 19 20 20 21 21 22 22 22 23 24 24 24 23 23 23 23
32 28 28 29 29 29 28 27 26 25 25 24 24 24 24 25 24 21 20 20 20 19 18 18 18 18 18 18 16 15 15 15 16 17 17 17 18 17 17 17 18 17 17 17 17 18 19 20 21 21 22 23 24 25 25 25 25 26 26 26 25 26 26
35 30 29 30 30 31 30 29 27 26 26 27 27 27 28 27 27 26 25 23 22 21 21 21 21 21 20 21 20 18 18 18 18 19 20 20 20 21 21 21 21 21 21 20 20 20 20 20 21 22 23 24 26 27 27 28 28 29 29 28 28 28 28
34 32 31 31 32 33 32 32 28 25 26 28 29 30 32 31 30 30 29 27 26 24 24 24 23 23 23 22 22 21 21 20 20 21 22 22 23 24 24 25 25 25 25 25 25 24 23 23 22 23 23 24 25 26 27 28 29 30 31 31 31 31 30
29 30 32 33 32 31 30 31 30 28 28 29 30 32 34 34 33 33 31 30 30 29 27 26 25 24 23 23 23 22 22 21 21 22 22 23 24 25 26 28 28 28 29 28 29 29 28 27 26 26 26 26 27 27 27 27 28 29 30 32 33 33 33
25 26 28 28 27 27 27 27 29 29 27 27 28 30 32 34 36 37 35 34 35 32 29 29 28 27 25 25 24 23 22 21 22 23 23 24 26 27 29 30 31 31 32 31 31 32 32 31 30 30 30 30 30 30 30 30 30 30 30 31 32 33 34
24 25 26 27 27 28 29 30 31 30 28 27 28 30 32 34 36 38 37 36 36 34 32 32 32 31 30 28 26 26 26 25 25 26 27 27 28 29 31 33 34 34 35 34 33 34 34 34 33 33 33 33 34 34 34 34 33 33 34 34 34 34 34
24 25 25 26 27 28 29 31 32 31 30 30 30 32 33 35 37 37 36 34 35 37 37 34 34 36 34 29 27 29 30 30 30 30 31 31 31 32 33 34 36 37 37 37 36 36 36 35 35 35 35 35 36 37 37 37 37 36 37 38 38 37 37
27 27 26 26 27 29 31 33 34 33 32 31 31 32 33 36 38 38 36 34 36 40 40 37 36 37 33 28 29 32 32 32 33 33 34 34 35 36 36 37 38 39 40 40 39 38 38 37 36 35 35 36 37 38 38 39 39 39 39 40 41 41 41
31 31 30 29 30 30 32 33 34 34 34 33 33 33 33 36 38 39 38 37 37 39 37 34 32 32 29 29 30 31 32 33 34 35 36 37 38 38 39 40 41 41 41 41 41 40 40 39 38 37 36 37 38 39 39 40 40 40 41 42 43 43 43
31 32 31 31 31 31 31 31 31 32 33 34 34 34 35 35 36 38 39 38 39 39 35 30 29 28 29 30 30 30 33 35 35 36 38 40 41 41 41 41 40 39 39 39 40 40 40 40 40 40 40 41 41 40 40 40 40 40 41 42 43 43 43
30 30 30 30 31 30 30 29 30 30 30 32 33 34 35 33 34 37 39 40 42 41 35 31 30 29 29 30 30 31 34 36 36 37 40 43 43 43 41 39 38 37 37 38 39 39 40 40 41 42 43 44 45 44 42 41 42 42 41 41 42 42 42
29 29 28 28 29 29 29 29 29 29 29 30 32 33 33 32 32 34 36 40 42 39 34 33 33 32 32 32 32 33 36 37 37 39 41 42 42 41 39 37 35 35 37 38 39 39 39 39 40 42 44 46 47 46 45 44 43 43 43 43 43 43 43
28 28 28 28 28 28 28 29 29 29 29 30 31 31 31 29 30 32 35 38 38 35 33 35 35 34 34 34 35 36 37 37 37 38 38 37 38 39 38 36 34 35 38 40 41 41 40 39 41 43 45 46 47 47 46 45 45 45 44 44 44 45 45
28 28 28 28 28 28 29 29 29 28 29 29 30 31 29 28 30 34 35 35 34 33 34 35 35 35 36 35 36 36 36 36 36 36 35 35 36 38 38 37 37 38 40 41 42 42 41 41 42 44 45 46 46 47 47 47 47 46 46 47 47 47 47
29 30 29 30 30 30 30 30 30 30 30 30 31 31 32 32 34 36 35 33 33 34 34 35 35 35 36 36 36 36 36 36 36 36 36 36 37 38 39 40 41 42 42 42 42 41 42 42 43 44 45 47 48 49 49 48 48 49 49 49 49 49 48
29 30 31 31 32 33 33 33 33 33 33 33 33 34 35 36 36 36 35 34 34 34 34 34 34 34 35 35 35 35 35 35 36 37 36 36 38 39 40 42 44 44 43 42 41 41 42 43 44 46 47 48 49 49 49 49 49 49 49 49 49 49 49
29 29 30 32 33 34 35 36 36 36 37 35 35 36 37 36 36 36 36 35 35 34 33 33 33 33 34 33 33 33 34 35 36 36 37 37 38 40 42 44 45 45 44 43 44 44 44 45 46 46 46 47 48 48 48 48 48 49 49 49 49 49 48
32 32 32 33 34 35 36 37 38 38 38 36 35 37 37 37 36 36 35 35 34 33 32 32 33 32 32 32 32 33 34 35 36 37 37 38 38 40 42 43 44 45 45 46 46 46 46 46 46 46 45 46 47 47 48 49 49 49 49 49 49 49 49
37 36 35 35 36 37 38 39 39 38 37 37 36 37 36 36 36 35 34 34 32 31 31 32 32 31 31 31 32 34 35 36 37 37 37 37 38 40 40 42 43 45 45 46 46 46 46 46 46 46 46 46 47 48 49 50 51 51 51 51 51 51 51
40 39 39 39 39 39 40 41 40 38 38 38 38 37 36 36 36 35 33 33 32 31 30 30 29 29 30 31 33 34 35 35 35 35 35 36 37 39 40 41 42 43 43 43 44 44 45 46 47 47 48 49 50 50 51 52 52 53 53 52 52 52 52
42 41 41 41 41 42 42 42 41 39 39 39 37 37 36 35 34 33 33 32 31 29 28 27 28 30 31 32 32 31 30 30 31 31 33 35 36 37 38 38 39 39 40 42 43 45 46 47 48 49 50 52 53 53 54 54 54 54 54 54 54 53 52
Wind_Direction
339 340 303 285 275 272 276 281 288 289 286 282 278 277 277 281 282 280 279 273 267 264 260 256 256 253 253 254 252 250 253 253 252 251 250 252 254 256 259 259 257 257 261 268 272 270 267 270 285 277 247 232 229 233 234 240 240 233 235 239 240 242 242
301 342 313 285 279 279 285 289 291 290 283 277 271 267 267 266 269 272 272 275 276 273 271 266 264 264 256 251 249 249 252 252 251 250 252 252 251 252 254 254 256 256 257 262 261 261 263 261 264 279 264 244 239 235 231 236 241 238 237 238 238 240 241
266 283 307 303 305 300 300 313 325 321 280 265 255 252 258 258 260 263 263 268 273 272 273 271 267 273 271 262 255 251 249 248 249 248 249 251 250 252 254 255 257 256 255 256 255 256 257 257 259 261 260 256 254 252 246 239 238 238 237 236 238 241 242
259 256 265 302 330 336 336 0 39 63 87 95 107 171 220 244 250 254 258 260 264 267 266 264 266 270 273 271 263 262 260 251 252 252 248 248 247 248 251 251 254 255 255 256 258 260 256 251 250 250 250 251 253 257 261 258 250 244 240 238 240 243 244
257 254 258 278 313 339 352 5 36 60 72 80 84 95 112 146 203 229 243 250 255 262 264 264 266 268 272 275 271 267 267 265 263 264 263 258 253 250 249 251 253 253 252 256 260 264 262 256 251 249 247 247 248 249 253 260 265 263 258 255 256 256 250
256 255 258 265 283 312 339 358 18 47 59 70 77 79 83 89 98 127 179 217 235 243 251 255 255 259 261 263 266 265 262 264 265 265 267 266 264 263 259 258 260 261 260 260 261 261 262 261 257 254 252 250 250 250 249 250 253 259 265 267 267 266 263
259 257 256 258 266 282 302 326 345 12 40 60 74 77 75 74 72 72 70 70 66 264 242 240 236 241 250 251 253 256 255 258 261 261 264 265 266 268 267 265 263 264 265 265 266 266 266 265 262 258 257 258 254 252 252 251 249 251 254 257 259 262 264
262 261 259 258 259 265 272 281 295 311 328 355 36 67 74 66 58 54 46 40 34 21 14 6 346 308 281 275 265 260 259 260 261 265 267 268 269 270 271 272 269 266 266 265 266 268 268 268 268 266 264 264 263 260 259 259 259 258 257 257 259 261 263
263 266 264 263 259 258 261 264 272 281 289 299 308 321 350 24 31 31 28 25 22 18 12 7 3 359 351 343 331 316 307 295 283 279 279 277 278 275 274 275 274 272 269 266 266 266 267 267 266 267 267 266 266 264 262 261 261 263 263 264 264 264 264
259 265 267 267 263 261 259 261 265 269 276 282 285 293 303 310 326 340 352 359 2 5 4 2 2 1 357 352 344 334 327 323 317 308 303 301 298 294 288 284 281 282 279 277 274 270 270 270 269 269 269 270 269 266 264 262 260 261 263 265 266 265 267
252 257 262 266 268 267 266 264 265 265 268 273 275 281 287 291 298 307 317 328 335 341 346 349 350 353 358 356 349 341 331 325 322 317 313 311 309 308 306 303 298 295 293 291 288 285 282 279 278 276 274 274 274 272 269 264 262 263 264 265 263 261 266
247 250 253 259 262 265 268 270 269 269 268 270 272 274 278 283 288 292 298 304 312 320 326 332 335 338 344 348 348 345 337 331 325 319 315 312 311 310 309 309 308 304 302 298 295 293 291 289 286 284 282 280 277 275 273 268 264 262 263 265 263 262 265
239 243 246 251 256 258 263 268 270 272 273 273 274 274 274 277 280 283 289 292 296 302 308 315 321 323 325 331 334 336 333 330 326 321 317 313 311 310 308 307 306 304 303 300 297 294 291 291 289 287 286 285 283 281 278 275 271 267 266 267 267 267 267
233 238 241 244 248 251 253 257 263 268 272 273 275 278 279 277 277 278 280 284 287 290 293 299 305 308 309 312 316 320 322 322 321 319 318 316 315 313 310 307 305 303 302 301 300 298 294 292 289 288 287 286 286 285 284 283 279 275 273 273 272 271 271
229 231 236 239 241 244 246 249 252 256 262 267 270 275 279 281 281 280 278 278 279 281 282 285 288 292 294 296 301 308 313 315 316 317 318 317 316 315 313 311 309 308 306 304 303 301 299 297 294 292 290 288 287 287 287 287 286 284 281 280 280 278 277
234 232 235 239 240 241 241 243 247 251 256 262 267 271 274 276 279 282 284 284 283 283 283 284 285 285 287 289 294 299 304 307 310 312 314 314 314 313 311 309 307 307 308 307 306 304 302 300 298 296 294 292 290 289 288 288 289 288 287 286 286 284 283
238 237 239 242 244 245 245 244 246 253 259 263 268 272 273 274 277 282 285 285 287 287 287 286 287 286 287 289 291 293 295 298 301 304 305 307 308 309 310 308 306 305 306 306 306 306 304 303 301 299 298 295 293 290 289 288 288 287 287 287 286 286 285
241 240 246 247 247 249 253 252 247 248 258 265 269 272 275 276 279 281 282 283 284 285 284 283 282 282 282 283 285 287 289 290 292 295 298 300 301 303 305 306 305 305 305 305 304 303 301 301 300 300 299 298 296 294 292 291 290 289 288 287 286 286 285
240 239 248 253 251 252 257 262 260 255 258 264 267 270 273 276 278 278 280 281 280 279 278 278 278 279 276 275 276 279 282 284 285 287 291 294 295 297 298 300 301 301 300 301 301 299 297 295 294 294 294 293 292 291 291 291 291 290 290 289 288 287 286
243 243 249 254 254 255 259 266 270 268 264 266 269 271 272 274 274 272 272 274 274 273 273 273 275 276 275 274 274 276 278 280 280 282 287 292 293 294 295 295 296 296 295 296 297 297 295 293 291 290 290 288 287 285 285 286 286 287 288 288 287 286 286
251 251 253 254 254 256 260 266 272 272 268 268 271 272 271 270 268 266 265 267 268 267 267 268 271 273 272 274 277 279 280 280 278 279 284 288 290 292 294 294 294 294 294 293 294 294 294 294 292 291 291 290 287 285 284 283 282 283 283 283 283 283 283
256 256 257 258 257 259 262 266 271 272 269 268 270 271 268 267 265 264 263 265 268 268 266 265 268 269 268 270 276 280 282 281 279 280 284 285 286 288 291 292 293 293 292 292 290 289 291 293 292 292 292 292 291 290 288 285 284 283 282 282 282 282 281
266 264 262 262 263 264 265 266 269 271 270 270 271 270 268 268 267 265 264 265 268 269 266 263 264 267 267 270 277 281 282 281 278 280 284 285 286 287 287 288 289 290 290 289 286 284 285 288 290 290 291 292 293 292 291 289 287 285 284 283 283 283 281
274 272 269 268 267 267 268 269 270 272 272 271 270 268 267 268 269 269 269 269 268 268 268 267 269 271 271 273 278 280 280 278 276 279 283 285 285 286 286 286 287 288 288 287 284 282 279 280 283 285 286 289 291 292 292 290 289 288 286 284 284 284 283
276 275 273 271 270 269 269 270 271 272 273 272 270 268 267 267 269 270 272 273 272 272 274 274 275 274 273 273 275 276 275 275 276 280 283 284 284 285 286 287 289 289 289 287 284 282 278 276 277 280 282 286 288 289 289 288 288 288 287 286 285 284 284
275 276 275 274 274 273 271 272 272 272 273 272 270 268 266 266 268 270 272 274 274 274 277 278 276 273 272 272 273 272 272 274 277 281 282 284 285 286 287 289 290 290 290 289 286 283 279 276 275 276 279 282 284 285 284 284 285 286 286 285 284 284 284
274 274 275 275 275 276 275 274 273 272 272 271 271 270 269 268 267 268 270 271 271 272 276 277 275 273 271 270 270 269 271 274 277 279 280 282 284 286 287 288 289 289 290 290 288 286 283 280 278 278 280 282 284 285 284 282 282 282 283 282 282 281 281
271 272 273 274 276 277 277 276 275 274 273 272 271 272 273 271 269 268 268 268 270 273 275 274 272 272 271 270 269 269 271 274 276 276 278 279 281 283 285 287 288 290 290 290 289 287 286 284 283 282 282 283 285 285 285 285 284 283 282 282 281 280 278
270 271 272 273 274 275 275 275 275 275 274 273 273 273 272 270 268 268 267 270 275 277 275 273 272 272 271 271 271 271 273 275 276 276 277 278 280 282 284 286 288 290 291 290 288 286 286 286 285 283 282 282 283 284 285 286 287 286 285 283 282 280 279
275 275 274 274 274 274 273 273 274 273 273 273 273 272 270 268 269 271 273 275 277 275 272 271 272 271 271 272 272 273 274 275 276 276 277 278 280 282 284 284 286 289 291 289 286 286 287 288 287 285 284 284 285 285 285 287 288 287 286 284 282 281 280
278 277 277 277 276 275 274 273 273 273 273 272 271 270 270 271 273 276 277 276 274 272 271 271 270 270 270 271 272 273 274 274 274 275 277 279 280 282 283 283 285 289 291 289 287 287 289 289 288 287 287 287 287 287 288 288 288 287 285 284 282 281 280
279 278 277 276 275 275 275 274 273 273 272 272 272 273 274 274 274 275 274 272 271 270 270 271 271 271 270 270 270 271 272 272 273 274 277 280 281 282 284 285 288 290 290 289 290 291 291 289 289 289 289 289 288 288 288 288 286 285 284 283 283 282 281
281 281 280 277 276 275 274 273 273 272 271 273 275 275 274 274 273 272 271 269 269 269 269 270 271 272 271 269 268 269 270 271 272 275 277 279 281 284 287 288 289 291 291 292 293 293 292 291 290 290 290 289 289 289 288 287 286 286 285 284 283 283 283
283 284 283 281 278 276 274 273 271 271 272 274 274 273 273 272 271 269 268 268 267 267 267 267 268 269 268 266 266 268 270 272 273 274 275 278 282 286 288 289 289 290 292 293 294 293 293 292 292 291 290 290 290 289 289 288 288 287 286 286 285 284 283
281 283 284 282 278 276 275 273 271 272 274 274 272 270 269 269 268 267 266 265 263 262 261 261 263 265 266 267 267 269 271 272 272 272 274 280 285 287 288 289 289 290 292 292 292 292 292 292 291 291 292 292 292 291 291 290 289 288 286 285 284 283 281
280 282 282 280 277 275 273 272 272 273 273 272 270 269 267 266 266 265 262 260 259 258 258 258 260 262 265 265 266 267 269 270 270 272 278 284 287 288 289 288 288 289 289 290 291 291 292 293 294 294 295 294 293 292 291 289 288 287 286 284 282 281 280
281 281 280 277 276 274 272 271 272 272 271 270 269 268 267 266 265 261 257 256 255 254 254 256 257 259 260 261 263 266 269 273 277 281 285 287 288 288 288 287 288 290 291 293 294 295 295 296 296 296 295 294 293 292 290 289 288 287 285 284 283 281 280
Height
3121 3120 3120 3120 3120 3120 3120 3120 3119 3119 3119 3119 3118 3118 3118 3118 3118 3118 3118 3117 3117 3117 3117 3117 3117 3118 3118 3118 3119 3119 3120 3120 3121 3122 3122 3122 3123 3123 3124 3125 3125 3126 3126 3127 3128 3128 3129 3129 3129 3130 3131 3131 3133 3135 3136 3137 3137 3138 3138 3139 3140 3140 3141
3121 3121 3120 3120 3120 3120 3120 3119 3119 3119 3118 3118 3118 3118 3118 3117 3117 3117 3117 3117 3117 3117 3117 3117 3117 3117 3118 3118 3118 3119 3119 3119 3120 3120 3121 3121 3121 3122 3123 3123 3123 3124 3124 3125 3126 3126 3127 3128 3129 3130 3130 3131 3132 3133 3134 3134 3135 3136 3137 3137 3138 3138 3139
3120 3120 3120 3120 3120 3120 3120 3119 3119 3119 3118 3118 3117 3117 3117 3117 3117 3117 3117 3117 3117 3117 3117 3117 3117 3117 3117 3118 3118 3118 3119 3119 3119 3119 3120 3120 3120 3121 3121 3121 3122 3122 3123 3123 3123 3124 3126 3126 3127 3128 3129 3130 3131 3132 3132 3133 3133 3134 3135 3135 3135 3136 3137
3120 3120 3120 3120 3120 3120 3120 3119 3119 3119 3118 3118 3117 3117 3117 3117 3117 3117 3117 3117 3117 3117 3117 3117 3117 3117 3118 3118 3118 3118 3118 3118 3119 3119 3119 3120 3120 3120 3121 3121 3121 3121 3121 3121 3121 3122 3123 3124 3125 3125 3126 3127 3128 3129 3130 3130 3131 3132 3132 3133 3133 3134 3135
3119 3119 3119 3120 3120 3120 3120 3119 3119 3119 3119 3118 3118 3118 3117 3117 3117 3117 3117 3117 3117 3117 3117 3117 3117 3117 3117 3118 3118 3118 3118 3118 3118 3118 3119 3119 3119 3120 3120 3120 3120 3120 3120 3120 3121 3121 3122 3122 3123 3123 3124 3124 3125 3126 3127 3128 3129 3129 3130 3131 3131 3132 3133
3119 3119 3119 3119 3119 3119 3120 3119 3119 3119 3119 3119 3118 3118 3118 3117 3117 3117 3117 3117 3117 3117 3117 3117 3117 3117 3117 3117 3117 3117 3118 3118 3118 3118 3118 3118 3118 3118 3119 3119 3119 3119 3120 3120 3120 3120 3121 3121 3122 3122 3122 3123 3123 3124 3124 3125 3126 3127 3128 3128 3129 3130 3131
3118 3118 3118 3119 3119 3119 3119 3119 3119 3119 3119 3119 3118 3118 3118 3118 3117 3117 3117 3117 3117 3117 3117 3117 3117 3117 3117 3117 3117 3117 3117 3117 3117 3117 3117 3117 3117 3117 3118 3118 3118 3119 3119 3119 3119 3120 3120 3120 3121 3121 3121 3122 3122 3123 3123 3123 3124 3125 3125 3126 3126 3127 3128
3117 3117 3117 3118 3118 3118 3118 3118 3118 3118 3119 3119 3118 3118 3118 3118 3117 3117 3117 3117 3117 3117 3117 3117 3117 3117 3117 3116 3116 3116 3117 3117 3117 3116 3116 3116 3116 3117 3117 3117 3117 3117 3118 3118 3118 3119 3119 3119 3120 3120 3120 3121 3121 3121 3122 3122 3122 3123 3123 3124 3124 3124 3124
3116 3116 3116 3117 3117 3117 3117 3117 3117 3117 3118 3118 3118 3118 3118 3118 3118 3117 3117 3117 3117 3117 3116 3116 3116 3116 3116 3116 3116 3116 3116 3116 3116 3116 3116 3116 3116 3116 3116 3116 3116 3116 3117 3117 3117 3117 3118 3118 3119 3119 3119 3119 3120 3120 3120 3121 3121 3121 3122 3122 3122 3122 3121
3115 3115 3115 3115 3115 3116 3116 3116 3116 3116 3116 3117 3117 3117 3118 3118 3118 3117 3117 3117 3117 3116 3116 3116 3116 3116 3115 3115 3115 3115 3115 3116 3116 3116 3116 3116 3116 3116 3116 3116 3116 3116 3116 3116 3116 3116 3117 3117 3117 3117 3118 3118 3118 3118 3119 3119 3120 3120 3120 3120 3121 3121 3119
3113 3113 3113 3113 3113 3114 3114 3114 3115 3115 3115 3115 3115 3116 3116 3117 3117 3117 3117 3117 3117 3116 3116 3116 3116 3116 3115 3115 3115 3115 3115 3115 3115 3115 3115 3115 3115 3115 3115 3115 3116 3116 3116 3116 3116 3116 3116 3116 3116 3116 3116 3116 3117 3117 3117 3118 3118 3118 3118 3118 3119 3119 3118
3111 3111 3111 3112 3112 3112 3112 3112 3112 3113 3113 3113 3114 3114 3115 3115 3115 3116 3116 3116 3116 3116 3116 3116 3115 3115 3115 3115 3115 3114 3114 3114 3114 3114 3114 3114 3114 3114 3114 3114 3115 3115 3115 3115 3115 3115 3115 3115 3115 3115 3115 3115 3115 3115 3115 3116 3116 3117 3116 3116 3117 3117 3116
3108 3109 3109 3109 3110 3110 3110 3110 3110 3110 3111 3111 3112 3112 3113 3114 3114 3114 3114 3114 3115 3115 3115 3115 3115 3115 3114 3114 3114 3114 3113 3113 3113 3113 3113 3113 3113 3113 3113 3113 3113 3113 3113 3113 3114 3114 3114 3114 3114 3114 3114 3114 3114 3113 3113 3113 3114 3114 3114 3114 3114 3115 3114
3105 3106 3107 3107 3107 3108 3108 3108 3108 3109 3109 3109 3109 3110 3111 3112 3112 3112 3113 3113 3113 3113 3113 3113 3113 3113 3113 3113 3113 3113 3113 3112 3112 3112 3112 3112 3112 3111 3111 3111 3111 3112 3112 3112 3112 3112 3112 3112 3112 3112 3112 3112 3112 3111 3111 3111 3110 3111 3111 3111 3111 3111 3111
3103 3103 3104 3104 3104 3105 3106 3106 3106 3106 3107 3107 3107 3108 3108 3109 3109 3110 3111 3111 3111 3111 3112 3112 3112 3112 3111 3111 3112 3112 3111 3111 3111 3111 3111 3111 3111 3111 3110 3110 3109 3110 3110 3110 3110 3109 3109 3110 3110 3110 3110 3110 3109 3109 3108 3108 3107 3107 3108 3108 3107 3107 3107
3101 3101 3101 3102 3102 3102 3103 3103 3104 3104 3104 3105 3105 3106 3106 3106 3107 3108 3109 3109 3109 3110 3110 3110 3110 3110 3110 3110 3110 3110 3110 3110 3110 3110 3109 3109 3109 3109 3109 3109 3108 3108 3108 3108 3108 3107 3107 3107 3107 3107 3107 3107 3107 3107 3106 3106 3105 3104 3104 3104 3104 3104 3104
3100 3099 3098 3099 3100 3101 3101 3100 3101 3102 3103 3103 3103 3103 3104 3104 3105 3106 3107 3107 3108 3108 3109 3109 3108 3109 3109 3109 3109 3109 3109 3109 3108 3108 3108 3107 3107 3107 3107 3107 3106 3106 3106 3106 3106 3105 3105 3104 3104 3104 3104 3103 3103 3103 3103 3103 3102 3102 3101 3101 3101 3101 3101
3097 3096 3095 3096 3098 3100 3100 3098 3097 3098 3100 3101 3102 3102 3102 3102 3103 3103 3104 3105 3106 3106 3107 3106 3106 3106 3106 3106 3107 3107 3107 3107 3106 3106 3106 3105 3105 3105 3104 3104 3104 3104 3104 3103 3103 3103 3103 3102 3102 3101 3101 3100 3100 3099 3099 3099 3098 3098 3098 3098 3098 3098 3098
3092 3094 3093 3094 3096 3096 3097 3096 3095 3095 3096 3098 3100 3100 3099 3100 3100 3100 3101 3102 3103 3104 3104 3104 3104 3103 3103 3103 3104 3104 3104 3104 3104 3104 3103 3103 3103 3102 3102 3102 3101 3101 3101 3101 3101 3100 3100 3100 3099 3099 3098 3098 3097 3096 3096 3096 3095 3094 3093 3093 3093 3093 3093
3087 3090 3091 3092 3093 3093 3094 3094 3094 3094 3094 3096 3097 3097 3097 3097 3097 3096 3096 3097 3099 3100 3100 3100 3100 3100 3100 3100 3100 3101 3101 3101 3101 3101 3100 3100 3100 3100 3100 3099 3099 3098 3098 3098 3097 3097 3097 3096 3096 3096 3095 3094 3094 3094 3093 3093 3092 3091 3090 3089 3089 3088 3089
3086 3087 3088 3089 3090 3091 3091 3091 3092 3092 3093 3094 3094 3094 3094 3094 3092 3091 3092 3093 3094 3095 3095 3096 3096 3097 3097 3097 3097 3098 3098 3098 3098 3098 3097 3097 3096 3096 3096 3096 3096 3095 3095 3095 3094 3093 3093 3092 3092 3092 3091 3090 3090 3089 3089 3089 3088 3088 3087 3086 3085 3085 3084
3084 3084 3085 3086 3086 3087 3088 3088 3088 3089 3090 3090 3091 3091 3090 3089 3087 3087 3089 3090 3090 3091 3090 3090 3092 3093 3093 3094 3094 3095 3095 3095 3095 3094 3094 3094 3093 3093 3093 3092 3092 3092 3091 3091 3091 3090 3089 3089 3088 3087 3087 3086 3085 3085 3084 3084 3084 3083 3083 3082 3082 3081 3081
3081 3081 3082 3082 3083 3083 3084 3085 3085 3085 3086 3086 3087 3087 3086 3085 3084 3084 3086 3088 3088 3087 3085 3086 3088 3089 3090 3092 3092 3091 3091 3091 3091 3090 3090 3090 3089 3089 3089 3088 3088 3087 3087 3087 3087 3086 3086 3085 3084 3083 3083 3082 3081 3080 3079 3079 3078 3078 3077 3077 3077 3076 3076
3078 3078 3078 3079 3079 3080 3080 3081 3081 3082 3082 3082 3082 3083 3082 3081 3081 3081 3081 3084 3084 3083 3083 3085 3085 3085 3088 3089 3088 3087 3087 3087 3087 3087 3086 3086 3085 3084 3084 3083 3083 3082 3082 3082 3082 3081 3081 3081 3080 3080 3079 3078 3077 3076 3075 3074 3073 3073 3072 3071 3071 3071 3070
3074 3074 3075 3075 3076 3076 3076 3077 3077 3077 3078 3078 3078 3078 3078 3078 3077 3077 3077 3078 3078 3079 3081 3083 3082 3082 3083 3084 3083 3083 3083 3082 3082 3083 3082 3081 3081 3080 3079 3078 3078 3077 3077 3076 3076 3076 3075 3075 3075 3074 3074 3074 3073 3072 3071 3070 3069 3068 3067 3066 3065 3065 3065
3070 3070 3070 3071 3071 3072 3072 3072 3072 3073 3073 3073 3073 3074 3074 3074 3074 3072 3072 3073 3072 3074 3077 3078 3078 3078 3079 3079 3079 3079 3078 3077 3078 3079 3078 3077 3076 3076 3075 3074 3073 3072 3071 3071 3071 3070 3069 3069 3068 3068 3068 3068 3067 3067 3067 3066 3065 3064 3063 3061 3060 3060 3060
3066 3066 3066 3066 3067 3067 3068 3068 3068 3069 3069 3069 3069 3069 3069 3071 3070 3069 3069 3068 3067 3069 3073 3073 3073 3074 3074 3074 3075 3075 3073 3073 3075 3075 3073 3073 3072 3071 3070 3069 3068 3068 3067 3066 3065 3064 3064 3063 3063 3062 3061 3061 3060 3060 3060 3060 3060 3059 3058 3057 3056 3055 3054
3063 3063 3063 3063 3063 3063 3063 3064 3064 3065 3065 3065 3064 3064 3065 3066 3066 3065 3064 3062 3062 3066 3069 3069 3069 3070 3070 3070 3070 3070 3069 3070 3070 3070 3069 3068 3068 3066 3065 3065 3064 3064 3063 3062 3060 3059 3059 3058 3058 3057 3055 3054 3054 3053 3053 3053 3052 3052 3052 3051 3050 3049 3048
3059 3059 3059 3059 3059 3060 3060 3060 3060 3061 3061 3060 3060 3060 3061 3061 3061 3060 3059 3058 3060 3062 3063 3063 3063 3064 3064 3065 3065 3065 3065 3065 3065 3064 3064 3063 3063 3061 3061 3060 3060 3060 3058 3057 3055 3054 3054 3054 3052 3051 3050 3049 3048 3047 3047 3046 3046 3045 3045 3044 3043 3042 3041
3054 3055 3055 3055 3056 3056 3056 3056 3056 3056 3056 3056 3056 3056 3056 3056 3056 3055 3055 3056 3057 3058 3058 3058 3058 3059 3059 3060 3060 3060 3060 3060 3059 3059 3058 3058 3057 3057 3056 3056 3056 3055 3054 3052 3050 3049 3049 3048 3047 3045 3043 3043 3042 3041 3040 3040 3039 3038 3037 3036 3035 3034 3034
3051 3051 3051 3051 3051 3051 3051 3052 3052 3052 3052 3052 3052 3051 3052 3052 3051 3050 3051 3053 3053 3053 3053 3053 3054 3054 3055 3055 3055 3055 3055 3055 3054 3054 3053 3053 3053 3052 3052 3051 3051 3050 3048 3046 3045 3044 3044 3042 3041 3039 3037 3036 3035 3034 3033 3033 3032 3031 3029 3028 3027 3027 3027
3047 3047 3048 3047 3047 3047 3047 3047 3047 3047 3047 3048 3047 3047 3047 3047 3046 3046 3047 3047 3048 3048 3048 3049 3049 3050 3050 3051 3051 3051 3051 3050 3050 3049 3049 3049 3048 3048 3047 3046 3045 3044 3042 3041 3040 3039 3038 3036 3035 3033 3031 3030 3028 3027 3026 3025 3024 3023 3022 3021 3020 3019 3019
3043 3043 3043 3043 3043 3043 3043 3043 3043 3042 3042 3043 3043 3042 3042 3043 3042 3042 3042 3042 3042 3043 3044 3044 3045 3046 3046 3046 3046 3046 3046 3046 3046 3045 3045 3045 3044 3043 3042 3041 3039 3037 3036 3035 3034 3033 3032 3030 3029 3027 3025 3023 3021 3020 3019 3017 3016 3014 3013 3013 3012 3012 3011
3039 3039 3039 3038 3038 3038 3038 3037 3037 3037 3038 3038 3038 3037 3037 3038 3037 3037 3038 3038 3038 3039 3040 3040 3041 3041 3041 3042 3042 3042 3042 3042 3042 3042 3041 3041 3040 3039 3038 3036 3034 3032 3030 3029 3028 3026 3025 3023 3022 3020 3019 3017 3015 3013 3011 3009 3008 3007 3005 3004 3004 3003 3003
3034 3033 3034 3033 3033 3033 3032 3032 3032 3033 3033 3033 3033 3032 3032 3032 3032 3033 3033 3034 3034 3035 3035 3036 3036 3037 3037 3038 3038 3039 3039 3039 3039 3038 3037 3037 3036 3035 3034 3032 3029 3027 3026 3024 3022 3020 3018 3017 3015 3014 3012 3010 3008 3006 3004 3002 3000 2999 2998 2997 2996 2995 2994
3029 3028 3028 3028 3027 3027 3027 3026 3027 3028 3028 3027 3027 3028 3028 3028 3028 3029 3029 3030 3030 3031 3031 3032 3033 3033 3034 3034 3035 3035 3035 3035 3035 3034 3034 3033 3032 3031 3029 3027 3025 3023 3021 3019 3017 3015 3013 3011 3009 3006 3005 3003 3000 2998 2996 2994 2992 2990 2989 2988 2987 2986 2985
3023 3023 3023 3022 3021 3021 3020 3021 3022 3022 3022 3022 3022 3023 3023 3024 3024 3025 3025 3026 3027 3027 3028 3029 3030 3030 3030 3031 3031 3031 3032 3031 3031 3031 3030 3029 3027 3026 3024 3023 3020 3018 3016 3014 3012 3009 3007 3004 3002 2999 2997 2994 2992 2990 2988 2986 2984 2982 2980 2979 2978 2977 2977